Location: Newark
(26.0814°N, 97.8289°W)
Time: 20:32:20
(UTC+00:00)

LightSail 2 - Pass Details

Date: 25 January 2020
Orbit: 699 x 722 km, 24.0° (Epoch: 22 February)

Event Time Altitude Azimuth Distance (km) Brightness Sun altitude
Rises 00:43:00 0° 269° (W) 3,075 10.2 -8.2°
Reaches altitude 10° 00:45:26 10° 266° (W) 2,160 9.1 -8.7°
Maximum altitude 00:50:30 69° 184° (S) 754 5.4 -9.8°
Enters shadow 00:55:29 11° 102° (ESE) 2,129 7.1 -10.9°
